Home > Weather > Alta > Past weeks

Flag for Norway Past Weather in Alta, Norway — Yesterday and Last 2 Weeks

Now
54 °F

Cool.


Feels Like: 54 °F
Forecast: 56 / 69 °F
Wind: 2 mph from East

Location: Alta Lufthavn

Current Time: May 29, 2016 at 11:16:09 PM

Latest Report: May 29, 2016 at 10:00 PM


Visibility: N/A

Pressure: 30.34 "Hg

Humidity: 73%

Dew Point: 45 °F

Location of AltaLocation

Past Weather in Alta — Graph

°F

Alta Temperature Yesterday

Maximum temperature yesterday: 60 °F (at 11:00 AM)
Minimum temperature yesterday: 50 °F (at 3:00 AM)
Average temperature yesterday: 54 °F

High & Low Weather Summary for the Past Weeks

 TemperatureHumidityPressure
High70 °F (May 27, 5:00 PM)90% (May 23, 11:00 PM)30.36 "Hg (May 23, 11:00 PM)
Low34 °F (May 16, 2:00 AM)24% (May 21, 4:00 PM)29.32 "Hg (May 17, 7:00 AM)
Average49 °F59%29.93 "Hg
* Reported May 14 10:00 PM — May 29 10:00 PM, Alta, Weather by CustomWeather, © 2016

Note: Actual official high and low records may vary slightly from our data, if they occured in-between our weather recording intervals... More about our weather records

Advertising

Alta Weather History for the Previous 24 Hours

Scroll right to see more
 ConditionsComfort  
Time TempWeatherWind HumidityBarometerVisibility
10:00 PM
Sun, May 29
54 °FCool.2 mph73%30.34 "HgN/A
9:00 PM55 °FCool.1 mph78%30.33 "HgN/A
8:00 PM57 °FCool.3 mph70%30.32 "HgN/A
7:00 PM57 °FCool.5 mph68%30.32 "HgN/A
6:00 PM57 °FCool.3 mph71%30.33 "HgN/A
5:00 PM56 °FCool.6 mph69%30.33 "HgN/A
4:00 PM55 °FCool.7 mph71%30.33 "HgN/A
3:00 PM56 °FCool.6 mph70%30.34 "HgN/A
2:00 PM55 °FCool.6 mph68%30.34 "HgN/A
1:00 PM55 °FCool.5 mph66%30.35 "HgN/A
12:00 PM53 °FCool.5 mph74%30.35 "HgN/A
11:00 AM52 °FCool.3 mph71%30.35 "HgN/A
10:00 AM50 °FCool.5 mph78%30.35 "HgN/A
9:00 AM49 °FCool.6 mph80%30.36 "HgN/A
8:00 AM48 °FCool.5 mph81%30.36 "HgN/A
7:00 AM48 °FCool.5 mph80%30.35 "HgN/A
6:00 AM49 °FCool.1 mph78%30.35 "HgN/A
5:00 AM47 °FCool.1 mph84%30.34 "HgN/A
4:00 AM46 °FCool.3 mph85%30.35 "HgN/A
3:00 AM46 °FCool.2 mph85%30.34 "HgN/A
2:00 AM46 °FCool.3 mph85%30.34 "HgN/A
1:00 AM46 °FCool.1 mph86%30.33 "HgN/A
12:00 AM47 °FCool.2 mph84%30.32 "HgN/A
11:00 PM
Sat, May 28
51 °FCool.2 mph70%30.32 "HgN/A
Weather by CustomWeather, © 2016

See weather overviewHow to use our weather pages